Theta_e
306 307 307 308 309 308 305 298 288 304 306 296 294 291 297 301 302 305 301 299 297 295 295 292 292 295 297 301 300 294 294 290 286 289 293 296 292 290 289 284 283 280 278 281
308 308 308 308 309 309 304 294 292 302 305 291 291 296 299 303 301 301 299 297 298 297 294 289 293 296 299 300 299 296 295 287 283 286 288 292 290 292 292 290 291 286 279 283
307 307 308 309 309 309 305 295 288 295 299 301 296 294 294 297 302 300 300 299 300 297 294 293 292 294 298 299 301 303 298 287 285 282 284 288 287 290 292 289 282 284 288 286
308 309 308 309 308 309 305 294 291 297 289 295 295 295 295 294 295 299 300 296 296 293 290 290 290 292 293 297 299 296 294 288 287 287 290 290 289 290 291 290 290 286 288 288
309 309 309 308 308 308 301 293 296 298 296 297 295 295 294 295 295 295 294 294 295 294 291 290 289 290 290 289 293 290 294 283 285 284 289 290 288 290 291 291 292 291 292 288
307 308 309 309 308 308 299 300 300 298 293 293 293 294 294 295 296 297 298 295 292 290 292 294 293 293 292 291 289 288 289 289 287 282 288 288 284 288 290 290 291 290 287 290
307 308 309 310 310 309 303 300 297 294 289 292 292 294 295 294 295 294 296 294 292 295 298 295 292 290 291 290 290 291 289 290 286 282 283 278 287 294 294 290 290 290 289 290
306 307 309 310 310 310 304 303 299 295 288 292 292 294 294 295 294 292 294 296 296 297 294 287 284 284 285 288 289 288 290 287 286 282 279 285 289 293 291 289 287 291 290 291
306 307 309 310 309 309 306 303 304 300 292 289 295 292 293 291 290 290 293 298 298 295 290 287 280 278 285 287 288 292 290 290 286 284 280 277 286 296 298 294 284 293 292 290
305 306 308 309 309 309 305 300 304 301 293 297 296 291 290 293 291 288 291 293 293 293 286 282 279 280 287 283 287 286 286 287 284 284 282 283 292 297 298 285 284 292 291 289
305 306 307 307 309 309 307 302 304 298 294 297 298 298 293 292 291 286 289 290 290 289 284 285 285 283 289 289 291 289 287 286 284 286 283 280 297 297 290 291 294 294 291 290
305 305 306 306 308 308 309 301 303 304 298 297 299 300 301 298 297 292 290 289 290 290 285 288 288 284 288 288 278 295 287 290 287 287 283 292 296 296 296 295 293 291 291 291
305 305 305 305 307 308 307 303 303 301 296 296 294 295 299 300 299 300 291 292 295 294 294 290 287 280 285 285 287 291 294 297 292 291 296 295 298 297 297 295 293 293 292 290
305 305 305 305 306 307 308 303 303 301 296 289 291 300 298 302 300 300 299 296 297 296 295 291 288 284 287 284 288 291 292 296 294 293 296 297 298 298 295 295 294 293 292 291
304 305 305 305 306 306 306 305 303 304 296 289 292 297 298 300 301 299 299 298 295 293 290 288 288 291 289 286 286 284 290 290 287 284 294 292 292 295 296 294 293 292 291 290
303 305 304 305 305 306 302 295 303 304 302 293 288 295 298 300 300 298 297 297 295 293 290 289 291 294 289 286 285 290 290 293 293 292 297 293 293 295 296 293 293 293 291 292
304 304 304 304 304 301 297 295 300 304 303 293 288 289 298 300 299 298 295 294 292 290 291 290 286 287 291 288 285 289 294 296 293 295 294 291 293 291 294 294 295 295 293 293
304 304 304 304 304 302 299 302 305 304 298 296 287 286 293 299 293 291 296 293 294 293 291 291 288 290 289 284 288 290 296 295 293 293 293 293 293 292 293 293 292 291 291 292
303 303 303 301 299 296 298 307 304 301 296 289 289 286 282 297 293 293 293 291 287 293 288 289 288 284 284 287 288 290 293 294 290 293 293 293 291 291 291 291 290 289 289 290
302 300 296 291 297 306 305 297 293 292 293 291 287 286 289 294 292 290 290 290 287 283 287 291 285 282 289 291 292 295 297 292 293 290 290 290 290 290 290 289 290 290 290 290
297 293 291 297 303 296 292 287 287 288 284 288 289 286 288 295 288 288 289 287 288 283 286 286 286 285 287 292 295 294 294 295 294 295 294 293 292 290 290 290 290 289 289 289
296 296 298 297 292 289 287 285 287 285 282 283 282 284 291 293 295 288 289 286 287 282 290 287 282 285 292 295 294 295 293 293 293 294 293 292 292 291 291 289 288 288 289 289
297 292 289 289 287 283 283 280 283 282 285 285 288 287 289 288 292 287 287 283 283 292 287 285 286 291 295 295 296 293 292 293 293 292 292 292 291 291 290 289 289 290 288 288
290 287 281 285 282 285 284 284 285 288 288 287 287 287 287 290 286 288 284 286 287 283 282 283 289 295 294 293 292 291 291 292 291 290 290 289 288 287 289 290 290 289 287 287
287 288 283 284 289 290 292 293 294 293 293 291 289 289 287 285 285 286 285 283 283 284 285 288 292 292 291 290 290 290 289 290 289 288 288 287 287 286 286 287 288 288 286 286
291 289 286 289 289 290 291 293 293 295 294 294 292 286 285 284 284 283 282 283 283 285 290 293 294 290 289 289 290 290 290 289 288 288 288 287 286 285 284 286 287 285 285 285
289 288 291 290 288 288 293 295 294 295 292 289 289 285 284 288 285 285 289 287 287 291 291 293 292 290 289 289 289 289 289 288 288 287 286 286 286 284 284 283 284 284 284 284
Wind_Speed
19 18 18 18 18 13 4 2 4 2 4 2 2 4 6 5 7 4 5 3 5 5 1 2 2 4 1 5 3 6 1 5 4 6 1 3 3 5 5 5 5 2 4 7
19 18 17 17 17 8 2 5 6 4 3 4 3 4 5 5 4 4 6 4 3 4 3 2 1 3 2 7 3 6 4 1 3 5 6 3 3 4 5 6 4 4 4 5
18 18 14 14 15 8 0 3 6 5 1 3 4 3 6 5 3 2 3 2 4 6 4 4 4 2 2 5 3 5 6 3 6 7 5 4 2 3 4 6 5 5 7 3
18 18 15 11 10 6 1 2 5 1 4 3 6 4 4 4 2 3 2 2 1 6 5 2 2 1 3 3 8 3 3 5 3 3 2 1 3 5 6 7 6 6 4 7
18 20 21 12 9 2 2 3 2 4 4 6 6 4 4 3 4 3 4 6 4 3 4 4 7 4 1 2 5 3 3 3 2 2 2 6 6 7 8 8 10 10 13 9
18 19 20 13 10 5 2 2 3 1 4 4 3 3 5 6 5 5 2 9 6 4 4 4 3 3 3 3 3 1 2 5 3 4 3 4 5 9 9 5 5 9 11 6
18 19 20 16 12 8 2 1 1 2 3 2 2 7 4 8 5 4 3 2 5 3 5 4 4 3 3 2 5 3 3 5 3 1 2 5 4 4 3 4 2 4 5 5
20 20 20 19 3 4 1 1 2 2 3 2 5 6 1 1 5 4 3 5 3 5 4 3 3 2 0 5 5 6 3 4 3 2 3 5 1 3 4 4 4 4 6 4
20 20 18 14 2 4 2 2 2 2 2 4 2 2 2 1 4 3 3 4 3 5 3 3 3 4 2 3 4 4 5 4 4 3 2 4 4 1 2 3 4 7 6 4
19 18 19 16 9 6 3 3 3 1 3 4 2 1 1 1 1 1 2 3 1 2 3 2 3 3 2 3 5 5 5 3 9 4 3 7 4 4 1 3 4 4 4 4
18 17 17 17 14 10 3 3 3 3 3 4 3 2 2 1 1 2 2 2 2 2 2 3 1 1 2 2 2 5 4 6 4 5 5 7 2 2 4 3 3 5 4 3
17 17 16 16 15 14 4 2 1 3 3 4 2 5 4 4 5 4 2 2 2 3 3 0 2 0 1 1 1 2 4 4 4 6 5 3 2 2 3 3 5 4 6 4
15 15 15 16 16 13 7 2 2 1 1 3 3 5 1 2 5 4 4 2 3 1 1 2 1 1 0 1 2 0 4 1 2 2 3 3 2 7 4 3 4 7 6 6
17 14 13 14 14 12 8 2 0 1 2 2 4 2 2 2 4 4 2 6 4 4 2 2 1 1 3 2 2 2 3 4 5 2 2 2 2 5 6 6 9 9 6 5
20 15 11 12 13 10 4 2 3 2 1 1 3 5 2 1 6 7 6 7 4 2 2 1 3 2 1 2 0 4 4 5 4 6 7 5 3 8 10 10 7 7 6 5
19 15 8 10 10 9 1 2 1 2 3 0 1 3 4 4 7 9 7 4 3 2 3 1 2 2 3 2 3 6 4 3 6 4 5 5 6 8 5 7 7 6 6 6
17 10 7 7 6 2 1 1 1 3 2 1 1 1 2 4 4 2 3 4 2 3 2 2 2 2 3 3 3 5 3 4 3 6 10 6 3 5 7 8 7 7 6 6
13 8 7 7 5 5 3 1 4 4 2 0 1 3 2 3 2 2 1 2 2 2 2 2 2 2 3 5 11 6 2 2 4 5 5 7 11 8 7 6 6 6 5 5
5 5 5 2 3 3 1 9 8 2 2 2 1 2 3 2 2 2 1 2 2 1 2 2 3 3 6 8 6 6 7 4 8 9 12 12 11 9 7 6 6 6 4 4
1 1 2 2 2 9 9 2 2 2 1 0 1 1 2 1 1 2 2 1 1 2 3 2 4 5 8 7 6 6 7 14 15 15 7 9 8 8 7 5 5 5 4 4
1 1 0 1 4 3 2 2 1 2 1 1 1 2 2 2 2 2 1 2 1 2 2 3 2 4 5 6 8 3 11 13 6 7 10 8 12 10 8 6 5 6 6 4
0 1 1 2 2 1 2 2 2 2 3 2 4 3 0 2 2 2 2 1 2 3 4 3 3 5 2 8 11 8 8 10 7 12 12 10 9 8 8 7 6 6 6 5
2 2 1 2 1 2 3 5 2 2 3 4 3 3 2 1 2 1 2 2 3 2 3 3 5 1 5 9 11 10 7 8 11 11 9 9 7 7 7 7 5 7 6 5
1 1 2 2 2 3 3 2 2 2 3 5 4 3 2 2 2 1 3 3 1 3 4 5 2 6 8 9 9 11 10 11 12 11 10 9 8 7 6 6 6 8 7 6
1 1 2 4 2 3 1 1 2 2 4 4 4 3 2 1 2 2 1 3 4 4 3 1 4 10 12 9 11 11 10 10 9 7 8 9 8 8 7 6 7 8 7 7
2 2 2 2 3 1 2 2 2 2 3 2 2 2 2 3 3 4 6 4 4 3 1 2 7 10 9 10 10 9 9 9 7 6 6 8 8 8 7 7 8 7 7 7
3 1 2 3 2 3 2 1 3 3 3 2 2 4 4 3 4 4 4 4 2 2 1 3 8 11 10 9 10 9 9 9 8 6 7 7 7 8 9 11 5 7 7 6
Wind_Direction
319 316 317 313 313 318 344 320 306 32 154 151 196 200 189 230 235 178 229 168 168 185 92 202 175 168 115 358 285 153 283 133 179 205 2 321 164 175 141 147 223 221 146 269
311 308 309 311 315 334 322 308 271 293 182 233 238 271 251 223 251 221 184 137 82 34 122 196 130 97 30 353 172 171 203 18 84 343 352 351 201 177 135 115 92 202 154 258
314 313 307 306 317 315 274 311 308 305 260 295 289 268 253 227 177 167 57 130 83 67 83 315 154 134 11 355 35 84 98 131 160 187 185 162 174 154 153 127 135 198 216 219
317 322 307 289 298 299 215 207 263 255 314 304 320 283 290 304 196 104 105 80 111 150 151 124 161 89 0 33 349 57 117 177 163 209 208 178 217 231 208 197 176 192 229 205
327 324 322 289 274 217 174 255 268 340 282 291 299 309 274 227 263 347 194 145 132 93 148 191 188 138 203 209 355 48 13 164 113 299 214 220 244 242 240 212 213 232 241 254
328 325 322 300 289 236 216 238 295 207 282 320 278 288 313 304 137 9 333 134 111 106 169 136 137 158 157 146 133 112 84 133 126 250 340 332 266 231 219 220 199 192 214 221
325 324 321 313 283 227 225 272 166 246 272 285 345 314 335 353 325 183 142 68 94 154 92 79 70 51 266 267 236 157 133 112 91 206 335 237 254 335 220 159 76 106 90 120
326 323 320 314 245 255 136 242 285 299 277 236 304 325 314 279 284 77 75 37 35 105 71 66 359 357 196 237 219 187 165 105 114 203 213 317 157 228 153 157 227 189 140 130
327 328 332 331 228 254 268 214 202 297 282 256 288 314 357 58 318 346 66 45 27 73 88 93 212 210 212 157 101 116 122 109 146 175 237 227 244 245 262 121 281 172 143 160
322 334 335 339 319 261 207 262 202 218 277 264 221 258 234 324 179 148 27 41 47 49 94 143 188 243 258 197 158 151 135 151 213 209 247 284 224 197 81 137 230 124 138 140
323 328 330 334 339 323 274 254 190 168 243 304 301 238 176 333 71 141 249 74 357 54 121 204 155 165 355 354 79 154 160 168 170 200 200 248 66 73 169 201 55 129 99 107
321 320 326 324 327 327 312 266 199 172 215 252 291 268 276 203 188 140 14 159 123 170 95 240 93 176 321 0 202 89 198 182 176 183 211 237 352 118 95 119 121 121 119 117
307 310 315 316 315 320 313 244 184 175 312 308 7 281 344 106 200 167 124 311 140 78 128 125 117 30 43 225 237 272 216 252 238 117 167 127 93 61 54 43 103 112 111 107
308 298 306 308 309 311 311 244 220 167 98 271 283 328 342 346 146 131 119 128 77 109 71 80 84 245 171 267 260 288 216 171 181 140 120 108 178 144 145 121 109 102 101 122
307 294 302 314 323 316 309 259 208 146 184 256 301 299 346 330 109 96 97 110 100 78 79 112 194 244 163 300 25 237 194 188 157 217 203 152 189 145 134 136 132 133 128 127
303 289 294 307 314 335 206 276 166 155 179 325 287 282 349 46 87 91 78 62 79 88 120 188 288 294 112 253 259 252 233 220 189 222 139 98 102 102 104 120 133 137 121 133
296 286 291 295 311 327 271 282 286 190 140 147 280 303 144 123 81 59 60 40 77 100 115 201 228 280 157 243 245 264 266 270 215 138 111 75 118 139 119 115 120 119 111 125
282 282 286 288 287 286 270 216 152 104 84 173 227 264 184 188 108 100 82 100 99 170 186 154 229 196 189 248 235 265 256 354 107 127 79 116 112 101 99 103 111 112 120 130
267 275 296 309 192 209 182 129 104 81 111 206 220 200 205 106 87 80 92 110 159 132 218 234 144 221 223 225 212 223 214 179 131 96 106 112 112 113 112 119 120 115 114 118
299 246 203 218 233 124 116 52 64 52 12 79 251 52 142 150 119 124 139 91 210 228 216 182 208 250 236 232 212 230 174 137 133 110 111 117 116 132 137 135 128 124 123 105
168 254 88 294 8 66 49 96 182 153 236 210 146 194 139 45 126 121 243 138 265 244 185 220 241 261 250 179 160 123 127 140 131 124 133 133 140 144 137 123 113 109 105 93
166 93 94 30 37 118 158 171 159 210 233 173 153 196 333 96 103 105 151 245 186 261 144 223 246 254 286 142 131 117 100 105 121 125 123 122 126 132 125 123 123 109 106 87
46 36 113 187 140 192 211 184 164 222 178 169 156 113 121 40 76 104 182 228 251 18 217 240 229 201 131 125 112 100 98 120 111 105 110 119 123 125 127 127 123 113 92 77
226 188 118 236 184 237 223 188 199 217 119 126 106 105 118 108 127 134 233 219 283 248 232 227 196 143 122 119 121 122 129 121 118 123 123 119 111 103 106 119 121 112 93 73
273 241 226 216 260 264 265 273 124 77 126 119 106 88 106 120 176 199 285 242 236 239 241 191 139 132 122 129 124 126 125 125 125 125 122 117 110 103 91 87 104 104 91 78
286 249 288 276 259 290 212 158 103 94 114 92 109 121 175 180 205 206 212 230 238 271 247 139 131 124 121 129 133 129 128 126 121 117 120 114 115 114 109 91 96 89 87 82
288 284 300 275 234 244 312 94 128 142 119 138 140 195 210 147 213 213 213 226 249 199 145 117 131 127 122 115 115 118 119 116 116 107 105 111 108 107 105 108 94 89 82 83